owner,sensor,date,latitude,longitude,relative_humidity,qcFlag 
DISL,ioos:station:DISL:PPTA:1,2017-11-01T00:30:00Z,30.2791,-87.5561,67.57,1111122 
DISL,ioos:station:DISL:PPTA:1,2017-11-01T01:30:00Z,30.2791,-87.5561,81.9,1111122 
DISL,ioos:station:DISL:PPTA:1,2017-11-01T02:30:00Z,30.2791,-87.5561,64.0,1111122 
DISL,ioos:station:DISL:PPTA:1,2017-11-01T03:30:00Z,30.2791,-87.5561,67.68,1111122 
DISL,ioos:station:DISL:PPTA:1,2017-11-01T04:30:00Z,30.2791,-87.5561,63.81,1111122 
DISL,ioos:station:DISL:PPTA:1,2017-11-01T05:30:00Z,30.2791,-87.5561,65.1,1111122 
DISL,ioos:station:DISL:PPTA:1,2017-11-01T06:30:00Z,30.2791,-87.5561,64.86,1111122 
DISL,ioos:station:DISL:PPTA:1,2017-11-01T07:30:00Z,30.2791,-87.5561,66.63,1111122 
DISL,ioos:station:DISL:PPTA:1,2017-11-01T08:30:00Z,30.2791,-87.5561,69.98,1111122 
DISL,ioos:station:DISL:PPTA:1,2017-11-01T09:30:00Z,30.2791,-87.5561,65.54,1111122 
DISL,ioos:station:DISL:PPTA:1,2017-11-01T10:30:00Z,30.2791,-87.5561,62.4,1111122 
DISL,ioos:station:DISL:PPTA:1,2017-11-01T11:30:00Z,30.2791,-87.5561,64.2,1111122 
DISL,ioos:station:DISL:PPTA:1,2017-11-01T12:30:00Z,30.2791,-87.5561,59.42,1111122 
DISL,ioos:station:DISL:PPTA:1,2017-11-01T13:30:00Z,30.2791,-87.5561,53.03,1111122 
DISL,ioos:station:DISL:PPTA:1,2017-11-01T14:30:00Z,30.2791,-87.5561,52.7,1111122 
DISL,ioos:station:DISL:PPTA:1,2017-11-01T15:30:00Z,30.2791,-87.5561,52.98,1111122 
DISL,ioos:station:DISL:PPTA:1,2017-11-01T16:30:00Z,30.2791,-87.5561,53.12,1111122 
DISL,ioos:station:DISL:PPTA:1,2017-11-01T17:30:00Z,30.2791,-87.5561,52.32,1111122 
DISL,ioos:station:DISL:PPTA:1,2017-11-01T18:30:00Z,30.2791,-87.5561,52.46,1111122 
DISL,ioos:station:DISL:PPTA:1,2017-11-01T19:30:00Z,30.2791,-87.5561,55.78,1111122 
DISL,ioos:station:DISL:PPTA:1,2017-11-01T20:30:00Z,30.2791,-87.5561,59.72,1111122 
DISL,ioos:station:DISL:PPTA:1,2017-11-01T21:30:00Z,30.2791,-87.5561,60.98,1111122 
DISL,ioos:station:DISL:PPTA:1,2017-11-01T22:30:00Z,30.2791,-87.5561,67.29,1111122 
DISL,ioos:station:DISL:PPTA:1,2017-11-01T23:30:00Z,30.2791,-87.5561,68.85,1111122 
DISL,ioos:station:DISL:PPTA:1,2017-11-02T00:30:00Z,30.2791,-87.5561,68.71,1111122 
DISL,ioos:station:DISL:PPTA:1,2017-11-02T01:30:00Z,30.2791,-87.5561,69.74,1111122 
DISL,ioos:station:DISL:PPTA:1,2017-11-02T02:30:00Z,30.2791,-87.5561,71.17,1111122 
DISL,ioos:station:DISL:PPTA:1,2017-11-02T03:30:00Z,30.2791,-87.5561,71.24,1111122 
DISL,ioos:station:DISL:PPTA:1,2017-11-02T04:30:00Z,30.2791,-87.5561,70.28,1111122 
DISL,ioos:station:DISL:PPTA:1,2017-11-02T05:30:00Z,30.2791,-87.5561,71.14,1111122 
DISL,ioos:station:DISL:PPTA:1,2017-11-02T06:30:00Z,30.2791,-87.5561,76.36,1111122 
DISL,ioos:station:DISL:PPTA:1,2017-11-02T07:30:00Z,30.2791,-87.5561,80.3,1111122 
DISL,ioos:station:DISL:PPTA:1,2017-11-02T08:30:00Z,30.2791,-87.5561,82.7,1111122 
DISL,ioos:station:DISL:PPTA:1,2017-11-02T09:30:00Z,30.2791,-87.5561,83.5,1111122 
DISL,ioos:station:DISL:PPTA:1,2017-11-02T10:30:00Z,30.2791,-87.5561,79.6,1111122 
DISL,ioos:station:DISL:PPTA:1,2017-11-02T11:30:00Z,30.2791,-87.5561,83.0,1111122 
DISL,ioos:station:DISL:PPTA:1,2017-11-02T12:30:00Z,30.2791,-87.5561,85.3,1111122 
DISL,ioos:station:DISL:PPTA:1,2017-11-02T13:30:00Z,30.2791,-87.5561,84.5,1111122 
DISL,ioos:station:DISL:PPTA:1,2017-11-02T14:30:00Z,30.2791,-87.5561,83.1,1111122 
DISL,ioos:station:DISL:PPTA:1,2017-11-02T15:30:00Z,30.2791,-87.5561,75.83,1111122 
DISL,ioos:station:DISL:PPTA:1,2017-11-02T16:30:00Z,30.2791,-87.5561,71.92,1111122 
DISL,ioos:station:DISL:PPTA:1,2017-11-02T17:30:00Z,30.2791,-87.5561,69.27,1111122 
DISL,ioos:station:DISL:PPTA:1,2017-11-02T18:30:00Z,30.2791,-87.5561,70.47,1111122 
DISL,ioos:station:DISL:PPTA:1,2017-11-02T19:30:00Z,30.2791,-87.5561,76.69,1111122 
DISL,ioos:station:DISL:PPTA:1,2017-11-02T20:30:00Z,30.2791,-87.5561,79.75,1111122 
DISL,ioos:station:DISL:PPTA:1,2017-11-02T21:30:00Z,30.2791,-87.5561,82.2,1111122 
DISL,ioos:station:DISL:PPTA:1,2017-11-02T22:30:00Z,30.2791,-87.5561,83.5,1111122 
DISL,ioos:station:DISL:PPTA:1,2017-11-02T23:30:00Z,30.2791,-87.5561,82.1,1111122 
DISL,ioos:station:DISL:PPTA:1,2017-11-03T00:30:00Z,30.2791,-87.5561,81.2,1111122 
DISL,ioos:station:DISL:PPTA:1,2017-11-03T01:30:00Z,30.2791,-87.5561,83.2,1111122 
DISL,ioos:station:DISL:PPTA:1,2017-11-03T02:30:00Z,30.2791,-87.5561,84.3,1111122 
DISL,ioos:station:DISL:PPTA:1,2017-11-03T03:30:00Z,30.2791,-87.5561,85.4,1111122 
DISL,ioos:station:DISL:PPTA:1,2017-11-03T04:30:00Z,30.2791,-87.5561,86.3,1111122 
DISL,ioos:station:DISL:PPTA:1,2017-11-03T05:30:00Z,30.2791,-87.5561,89.6,1111122 
DISL,ioos:station:DISL:PPTA:1,2017-11-03T06:30:00Z,30.2791,-87.5561,88.7,1111122 
DISL,ioos:station:DISL:PPTA:1,2017-11-03T07:30:00Z,30.2791,-87.5561,89.6,1111122 
DISL,ioos:station:DISL:PPTA:1,2017-11-03T08:30:00Z,30.2791,-87.5561,89.2,1111122 
DISL,ioos:station:DISL:PPTA:1,2017-11-03T09:30:00Z,30.2791,-87.5561,92.6,1111122 
DISL,ioos:station:DISL:PPTA:1,2017-11-03T10:30:00Z,30.2791,-87.5561,94.4,1111122 
DISL,ioos:station:DISL:PPTA:1,2017-11-03T11:30:00Z,30.2791,-87.5561,95.4,1111122 
DISL,ioos:station:DISL:PPTA:1,2017-11-03T12:30:00Z,30.2791,-87.5561,95.8,1111122 
DISL,ioos:station:DISL:PPTA:1,2017-11-03T13:30:00Z,30.2791,-87.5561,95.6,1111122 
DISL,ioos:station:DISL:PPTA:1,2017-11-03T14:30:00Z,30.2791,-87.5561,92.8,1111122 
DISL,ioos:station:DISL:PPTA:1,2017-11-03T15:30:00Z,30.2791,-87.5561,80.8,1111122 
DISL,ioos:station:DISL:PPTA:1,2017-11-03T16:30:00Z,30.2791,-87.5561,81.1,1111122 
DISL,ioos:station:DISL:PPTA:1,2017-11-03T17:30:00Z,30.2791,-87.5561,76.23,1111122 
DISL,ioos:station:DISL:PPTA:1,2017-11-03T18:30:00Z,30.2791,-87.5561,76.33,1111122 
DISL,ioos:station:DISL:PPTA:1,2017-11-03T19:30:00Z,30.2791,-87.5561,72.21,1111122 
DISL,ioos:station:DISL:PPTA:1,2017-11-03T20:30:00Z,30.2791,-87.5561,72.17,1111122 
DISL,ioos:station:DISL:PPTA:1,2017-11-03T21:30:00Z,30.2791,-87.5561,74.9,1111122 
DISL,ioos:station:DISL:PPTA:1,2017-11-03T22:30:00Z,30.2791,-87.5561,77.01,1111122 
DISL,ioos:station:DISL:PPTA:1,2017-11-03T23:30:00Z,30.2791,-87.5561,80.1,1111122 
DISL,ioos:station:DISL:PPTA:1,2017-11-04T00:30:00Z,30.2791,-87.5561,78.37,1111122 
DISL,ioos:station:DISL:PPTA:1,2017-11-04T01:30:00Z,30.2791,-87.5561,79.56,1111122 
DISL,ioos:station:DISL:PPTA:1,2017-11-04T02:30:00Z,30.2791,-87.5561,81.8,1111122 
DISL,ioos:station:DISL:PPTA:1,2017-11-04T03:30:00Z,30.2791,-87.5561,83.4,1111122 
DISL,ioos:station:DISL:PPTA:1,2017-11-04T04:30:00Z,30.2791,-87.5561,91.7,1111122 
DISL,ioos:station:DISL:PPTA:1,2017-11-04T05:30:00Z,30.2791,-87.5561,93.8,1111122 
DISL,ioos:station:DISL:PPTA:1,2017-11-04T06:30:00Z,30.2791,-87.5561,94.7,1111122 
DISL,ioos:station:DISL:PPTA:1,2017-11-04T07:30:00Z,30.2791,-87.5561,95.4,1111122 
DISL,ioos:station:DISL:PPTA:1,2017-11-04T08:30:00Z,30.2791,-87.5561,95.7,1111122 
DISL,ioos:station:DISL:PPTA:1,2017-11-04T09:30:00Z,30.2791,-87.5561,96.1,1111122 
DISL,ioos:station:DISL:PPTA:1,2017-11-04T10:30:00Z,30.2791,-87.5561,96.4,1111122 
DISL,ioos:station:DISL:PPTA:1,2017-11-04T11:30:00Z,30.2791,-87.5561,96.3,1111122 
DISL,ioos:station:DISL:PPTA:1,2017-11-04T12:30:00Z,30.2791,-87.5561,96.1,1111122 
DISL,ioos:station:DISL:PPTA:1,2017-11-04T13:30:00Z,30.2791,-87.5561,95.2,1111122 
DISL,ioos:station:DISL:PPTA:1,2017-11-04T14:30:00Z,30.2791,-87.5561,88.1,1111122 
DISL,ioos:station:DISL:PPTA:1,2017-11-04T15:30:00Z,30.2791,-87.5561,80.6,1111122 
DISL,ioos:station:DISL:PPTA:1,2017-11-04T16:30:00Z,30.2791,-87.5561,79.72,1111122 
DISL,ioos:station:DISL:PPTA:1,2017-11-04T17:30:00Z,30.2791,-87.5561,77.74,1111122 
DISL,ioos:station:DISL:PPTA:1,2017-11-04T18:30:00Z,30.2791,-87.5561,76.38,1111122 
DISL,ioos:station:DISL:PPTA:1,2017-11-04T19:30:00Z,30.2791,-87.5561,72.78,1111122 
DISL,ioos:station:DISL:PPTA:1,2017-11-04T20:30:00Z,30.2791,-87.5561,73.11,1111122 
DISL,ioos:station:DISL:PPTA:1,2017-11-04T21:30:00Z,30.2791,-87.5561,74.15,1111122 
DISL,ioos:station:DISL:PPTA:1,2017-11-04T22:30:00Z,30.2791,-87.5561,75.51,1111122 
DISL,ioos:station:DISL:PPTA:1,2017-11-04T23:30:00Z,30.2791,-87.5561,77.1,1111122 
DISL,ioos:station:DISL:PPTA:1,2017-11-05T00:30:00Z,30.2791,-87.5561,78.98,1111122 
DISL,ioos:station:DISL:PPTA:1,2017-11-05T01:30:00Z,30.2791,-87.5561,78.96,1111122 
DISL,ioos:station:DISL:PPTA:1,2017-11-05T02:30:00Z,30.2791,-87.5561,79.82,1111122 
DISL,ioos:station:DISL:PPTA:1,2017-11-05T03:30:00Z,30.2791,-87.5561,80.4,1111122 
DISL,ioos:station:DISL:PPTA:1,2017-11-05T04:30:00Z,30.2791,-87.5561,88.1,1111122 
DISL,ioos:station:DISL:PPTA:1,2017-11-05T05:30:00Z,30.2791,-87.5561,91.3,1111122 
DISL,ioos:station:DISL:PPTA:1,2017-11-05T06:30:00Z,30.2791,-87.5561,93.9,1111122 
DISL,ioos:station:DISL:PPTA:1,2017-11-05T08:30:00Z,30.2791,-87.5561,95.7,1111122 
DISL,ioos:station:DISL:PPTA:1,2017-11-05T09:30:00Z,30.2791,-87.5561,96.0,1111122 
DISL,ioos:station:DISL:PPTA:1,2017-11-05T10:30:00Z,30.2791,-87.5561,96.4,1111122 
DISL,ioos:station:DISL:PPTA:1,2017-11-05T11:30:00Z,30.2791,-87.5561,96.7,1111122 
DISL,ioos:station:DISL:PPTA:1,2017-11-05T12:30:00Z,30.2791,-87.5561,96.8,1111122 
DISL,ioos:station:DISL:PPTA:1,2017-11-05T13:30:00Z,30.2791,-87.5561,96.7,1111122 
DISL,ioos:station:DISL:PPTA:1,2017-11-05T14:30:00Z,30.2791,-87.5561,96.0,1111122 
DISL,ioos:station:DISL:PPTA:1,2017-11-05T15:30:00Z,30.2791,-87.5561,90.5,1111122 
DISL,ioos:station:DISL:PPTA:1,2017-11-05T16:30:00Z,30.2791,-87.5561,79.04,1111122 
DISL,ioos:station:DISL:PPTA:1,2017-11-05T17:30:00Z,30.2791,-87.5561,82.1,1111122 
DISL,ioos:station:DISL:PPTA:1,2017-11-05T18:30:00Z,30.2791,-87.5561,79.38,1111122 
DISL,ioos:station:DISL:PPTA:1,2017-11-05T19:30:00Z,30.2791,-87.5561,76.23,1111122 
DISL,ioos:station:DISL:PPTA:1,2017-11-05T20:30:00Z,30.2791,-87.5561,76.04,1111122 
DISL,ioos:station:DISL:PPTA:1,2017-11-05T21:30:00Z,30.2791,-87.5561,74.56,1111122 
DISL,ioos:station:DISL:PPTA:1,2017-11-05T22:30:00Z,30.2791,-87.5561,76.47,1111122 
DISL,ioos:station:DISL:PPTA:1,2017-11-05T23:30:00Z,30.2791,-87.5561,77.51,1111122 
DISL,ioos:station:DISL:PPTA:1,2017-11-06T00:30:00Z,30.2791,-87.5561,84.0,1111122 
DISL,ioos:station:DISL:PPTA:1,2017-11-06T01:30:00Z,30.2791,-87.5561,85.8,1111122 
DISL,ioos:station:DISL:PPTA:1,2017-11-06T02:30:00Z,30.2791,-87.5561,88.3,1111122 
DISL,ioos:station:DISL:PPTA:1,2017-11-06T03:30:00Z,30.2791,-87.5561,88.8,1111122 
DISL,ioos:station:DISL:PPTA:1,2017-11-06T04:30:00Z,30.2791,-87.5561,89.5,1111122 
DISL,ioos:station:DISL:PPTA:1,2017-11-06T05:30:00Z,30.2791,-87.5561,81.6,1111122 
DISL,ioos:station:DISL:PPTA:1,2017-11-06T06:30:00Z,30.2791,-87.5561,82.9,1111122 
DISL,ioos:station:DISL:PPTA:1,2017-11-06T07:30:00Z,30.2791,-87.5561,81.3,1111122 
DISL,ioos:station:DISL:PPTA:1,2017-11-06T08:30:00Z,30.2791,-87.5561,83.5,1111122 
DISL,ioos:station:DISL:PPTA:1,2017-11-06T09:00:00Z,30.2791,-87.5561,83.8,1111122 
DISL,ioos:station:DISL:PPTA:1,2017-11-06T10:30:00Z,30.2791,-87.5561,92.0,1111122 
DISL,ioos:station:DISL:PPTA:1,2017-11-06T11:30:00Z,30.2791,-87.5561,94.3,1111122 
DISL,ioos:station:DISL:PPTA:1,2017-11-06T12:30:00Z,30.2791,-87.5561,95.1,1111122 
DISL,ioos:station:DISL:PPTA:1,2017-11-06T13:30:00Z,30.2791,-87.5561,94.8,1111122 
DISL,ioos:station:DISL:PPTA:1,2017-11-06T14:30:00Z,30.2791,-87.5561,89.4,1111122 
DISL,ioos:station:DISL:PPTA:1,2017-11-06T15:30:00Z,30.2791,-87.5561,82.0,1111122 
DISL,ioos:station:DISL:PPTA:1,2017-11-06T16:30:00Z,30.2791,-87.5561,74.67,1111122 
DISL,ioos:station:DISL:PPTA:1,2017-11-06T17:30:00Z,30.2791,-87.5561,76.49,1111122 
DISL,ioos:station:DISL:PPTA:1,2017-11-06T18:30:00Z,30.2791,-87.5561,75.88,1111122 
DISL,ioos:station:DISL:PPTA:1,2017-11-06T19:30:00Z,30.2791,-87.5561,73.52,1111122 
DISL,ioos:station:DISL:PPTA:1,2017-11-06T20:30:00Z,30.2791,-87.5561,74.12,1111122 
DISL,ioos:station:DISL:PPTA:1,2017-11-06T21:30:00Z,30.2791,-87.5561,71.5,1111122 
DISL,ioos:station:DISL:PPTA:1,2017-11-06T22:30:00Z,30.2791,-87.5561,75.99,1111122 
DISL,ioos:station:DISL:PPTA:1,2017-11-06T23:30:00Z,30.2791,-87.5561,80.9,1111122 
DISL,ioos:station:DISL:PPTA:1,2017-11-07T00:30:00Z,30.2791,-87.5561,81.4,1111122 
DISL,ioos:station:DISL:PPTA:1,2017-11-07T01:30:00Z,30.2791,-87.5561,82.6,1111122 
DISL,ioos:station:DISL:PPTA:1,2017-11-07T02:30:00Z,30.2791,-87.5561,84.9,1111122 
DISL,ioos:station:DISL:PPTA:1,2017-11-07T03:30:00Z,30.2791,-87.5561,85.4,1111122 
DISL,ioos:station:DISL:PPTA:1,2017-11-07T04:30:00Z,30.2791,-87.5561,85.1,1111122 
DISL,ioos:station:DISL:PPTA:1,2017-11-07T05:30:00Z,30.2791,-87.5561,84.2,1111122 
DISL,ioos:station:DISL:PPTA:1,2017-11-07T06:30:00Z,30.2791,-87.5561,84.8,1111122 
DISL,ioos:station:DISL:PPTA:1,2017-11-07T07:30:00Z,30.2791,-87.5561,85.7,1111122 
DISL,ioos:station:DISL:PPTA:1,2017-11-07T08:30:00Z,30.2791,-87.5561,86.5,1111122 
DISL,ioos:station:DISL:PPTA:1,2017-11-07T09:30:00Z,30.2791,-87.5561,91.6,1111122 
DISL,ioos:station:DISL:PPTA:1,2017-11-07T10:30:00Z,30.2791,-87.5561,93.7,1111122 
DISL,ioos:station:DISL:PPTA:1,2017-11-07T11:30:00Z,30.2791,-87.5561,94.9,1111122 
DISL,ioos:station:DISL:PPTA:1,2017-11-07T12:30:00Z,30.2791,-87.5561,95.8,1111122 
DISL,ioos:station:DISL:PPTA:1,2017-11-07T13:30:00Z,30.2791,-87.5561,96.1,1111122 
DISL,ioos:station:DISL:PPTA:1,2017-11-07T14:30:00Z,30.2791,-87.5561,88.3,1111122 
DISL,ioos:station:DISL:PPTA:1,2017-11-07T15:30:00Z,30.2791,-87.5561,77.99,1111122 
DISL,ioos:station:DISL:PPTA:1,2017-11-07T16:30:00Z,30.2791,-87.5561,73.59,1111122 
DISL,ioos:station:DISL:PPTA:1,2017-11-07T17:30:00Z,30.2791,-87.5561,65.15,1111122 
DISL,ioos:station:DISL:PPTA:1,2017-11-07T18:30:00Z,30.2791,-87.5561,80.3,1111122 
DISL,ioos:station:DISL:PPTA:1,2017-11-07T19:30:00Z,30.2791,-87.5561,81.0,1111122 
DISL,ioos:station:DISL:PPTA:1,2017-11-07T20:30:00Z,30.2791,-87.5561,75.14,1111122 
DISL,ioos:station:DISL:PPTA:1,2017-11-07T21:30:00Z,30.2791,-87.5561,71.39,1111122 
DISL,ioos:station:DISL:PPTA:1,2017-11-07T22:30:00Z,30.2791,-87.5561,76.1,1111122 
DISL,ioos:station:DISL:PPTA:1,2017-11-07T23:30:00Z,30.2791,-87.5561,85.5,1111122 
DISL,ioos:station:DISL:PPTA:1,2017-11-08T00:30:00Z,30.2791,-87.5561,87.3,1111122 
DISL,ioos:station:DISL:PPTA:1,2017-11-08T01:30:00Z,30.2791,-87.5561,90.3,1111122 
DISL,ioos:station:DISL:PPTA:1,2017-11-08T02:30:00Z,30.2791,-87.5561,91.3,1111122 
DISL,ioos:station:DISL:PPTA:1,2017-11-08T03:30:00Z,30.2791,-87.5561,91.8,1111122 
DISL,ioos:station:DISL:PPTA:1,2017-11-08T05:30:00Z,30.2791,-87.5561,95.2,1111122 
DISL,ioos:station:DISL:PPTA:1,2017-11-08T06:30:00Z,30.2791,-87.5561,95.9,1111122 
DISL,ioos:station:DISL:PPTA:1,2017-11-08T07:30:00Z,30.2791,-87.5561,96.3,1111122 
DISL,ioos:station:DISL:PPTA:1,2017-11-08T08:30:00Z,30.2791,-87.5561,96.9,1111122 
DISL,ioos:station:DISL:PPTA:1,2017-11-08T09:30:00Z,30.2791,-87.5561,97.4,1111122 
DISL,ioos:station:DISL:PPTA:1,2017-11-08T10:30:00Z,30.2791,-87.5561,98.3,1111122 
DISL,ioos:station:DISL:PPTA:1,2017-11-08T11:30:00Z,30.2791,-87.5561,98.9,1111122 
DISL,ioos:station:DISL:PPTA:1,2017-11-08T12:30:00Z,30.2791,-87.5561,99.0,1111122 
DISL,ioos:station:DISL:PPTA:1,2017-11-08T13:30:00Z,30.2791,-87.5561,99.0,1111122 
DISL,ioos:station:DISL:PPTA:1,2017-11-08T14:30:00Z,30.2791,-87.5561,97.1,1111122 
DISL,ioos:station:DISL:PPTA:1,2017-11-08T15:30:00Z,30.2791,-87.5561,88.6,1111122 
DISL,ioos:station:DISL:PPTA:1,2017-11-08T16:30:00Z,30.2791,-87.5561,81.3,1111122 
DISL,ioos:station:DISL:PPTA:1,2017-11-08T17:30:00Z,30.2791,-87.5561,78.45,1111122 
DISL,ioos:station:DISL:PPTA:1,2017-11-08T18:30:00Z,30.2791,-87.5561,78.76,1111122 
DISL,ioos:station:DISL:PPTA:1,2017-11-08T19:30:00Z,30.2791,-87.5561,82.4,1111122 
DISL,ioos:station:DISL:PPTA:1,2017-11-08T20:30:00Z,30.2791,-87.5561,83.0,1111122 
DISL,ioos:station:DISL:PPTA:1,2017-11-08T21:30:00Z,30.2791,-87.5561,84.8,1111122 
DISL,ioos:station:DISL:PPTA:1,2017-11-08T22:30:00Z,30.2791,-87.5561,84.8,1111122 
DISL,ioos:station:DISL:PPTA:1,2017-11-08T23:30:00Z,30.2791,-87.5561,91.2,1111122 
DISL,ioos:station:DISL:PPTA:1,2017-11-09T00:30:00Z,30.2791,-87.5561,89.2,1111122 
DISL,ioos:station:DISL:PPTA:1,2017-11-09T01:30:00Z,30.2791,-87.5561,87.5,1111122 
DISL,ioos:station:DISL:PPTA:1,2017-11-09T02:30:00Z,30.2791,-87.5561,87.6,1111122 
DISL,ioos:station:DISL:PPTA:1,2017-11-09T03:30:00Z,30.2791,-87.5561,87.5,1111122 
DISL,ioos:station:DISL:PPTA:1,2017-11-09T04:30:00Z,30.2791,-87.5561,87.1,1111122 
DISL,ioos:station:DISL:PPTA:1,2017-11-09T05:30:00Z,30.2791,-87.5561,88.4,1111122 
DISL,ioos:station:DISL:PPTA:1,2017-11-09T06:30:00Z,30.2791,-87.5561,89.0,1111122 
DISL,ioos:station:DISL:PPTA:1,2017-11-09T07:30:00Z,30.2791,-87.5561,88.5,1111122 
DISL,ioos:station:DISL:PPTA:1,2017-11-09T08:30:00Z,30.2791,-87.5561,88.0,1111122 
DISL,ioos:station:DISL:PPTA:1,2017-11-09T09:30:00Z,30.2791,-87.5561,87.3,1111122 
DISL,ioos:station:DISL:PPTA:1,2017-11-09T10:30:00Z,30.2791,-87.5561,89.2,1111122 
DISL,ioos:station:DISL:PPTA:1,2017-11-09T11:30:00Z,30.2791,-87.5561,89.3,1111122 
DISL,ioos:station:DISL:PPTA:1,2017-11-09T12:30:00Z,30.2791,-87.5561,87.6,1111122 
DISL,ioos:station:DISL:PPTA:1,2017-11-09T13:30:00Z,30.2791,-87.5561,89.7,1111122 
DISL,ioos:station:DISL:PPTA:1,2017-11-09T14:30:00Z,30.2791,-87.5561,90.6,1111122 
DISL,ioos:station:DISL:PPTA:1,2017-11-09T15:30:00Z,30.2791,-87.5561,87.8,1111122 
DISL,ioos:station:DISL:PPTA:1,2017-11-09T16:30:00Z,30.2791,-87.5561,83.2,1111122 
DISL,ioos:station:DISL:PPTA:1,2017-11-09T17:30:00Z,30.2791,-87.5561,75.11,1111122 
DISL,ioos:station:DISL:PPTA:1,2017-11-09T18:30:00Z,30.2791,-87.5561,74.81,1111122 
DISL,ioos:station:DISL:PPTA:1,2017-11-09T19:30:00Z,30.2791,-87.5561,74.29,1111122 
DISL,ioos:station:DISL:PPTA:1,2017-11-09T20:30:00Z,30.2791,-87.5561,77.0,1111122 
DISL,ioos:station:DISL:PPTA:1,2017-11-09T21:30:00Z,30.2791,-87.5561,80.9,1111122 
DISL,ioos:station:DISL:PPTA:1,2017-11-09T22:30:00Z,30.2791,-87.5561,84.0,1111122 
DISL,ioos:station:DISL:PPTA:1,2017-11-09T23:30:00Z,30.2791,-87.5561,83.6,1111122 
DISL,ioos:station:DISL:PPTA:1,2017-11-10T00:30:00Z,30.2791,-87.5561,81.8,1111122 
DISL,ioos:station:DISL:PPTA:1,2017-11-10T01:30:00Z,30.2791,-87.5561,81.4,1111122 
DISL,ioos:station:DISL:PPTA:1,2017-11-10T02:30:00Z,30.2791,-87.5561,79.78,1111122 
DISL,ioos:station:DISL:PPTA:1,2017-11-10T03:30:00Z,30.2791,-87.5561,81.9,1111122 
DISL,ioos:station:DISL:PPTA:1,2017-11-10T04:30:00Z,30.2791,-87.5561,81.9,1111122 
DISL,ioos:station:DISL:PPTA:1,2017-11-10T05:30:00Z,30.2791,-87.5561,84.6,1111122 
DISL,ioos:station:DISL:PPTA:1,2017-11-10T06:30:00Z,30.2791,-87.5561,87.6,1111122 
DISL,ioos:station:DISL:PPTA:1,2017-11-10T07:30:00Z,30.2791,-87.5561,88.6,1111122 
DISL,ioos:station:DISL:PPTA:1,2017-11-10T08:30:00Z,30.2791,-87.5561,89.7,1111122 
DISL,ioos:station:DISL:PPTA:1,2017-11-10T09:30:00Z,30.2791,-87.5561,91.5,1111122 
DISL,ioos:station:DISL:PPTA:1,2017-11-10T10:30:00Z,30.2791,-87.5561,92.0,1111122 
DISL,ioos:station:DISL:PPTA:1,2017-11-10T11:30:00Z,30.2791,-87.5561,93.3,1111122 
DISL,ioos:station:DISL:PPTA:1,2017-11-10T12:30:00Z,30.2791,-87.5561,93.6,1111122 
DISL,ioos:station:DISL:PPTA:1,2017-11-10T13:30:00Z,30.2791,-87.5561,90.1,1111122 
DISL,ioos:station:DISL:PPTA:1,2017-11-10T14:30:00Z,30.2791,-87.5561,70.91,1111122 
DISL,ioos:station:DISL:PPTA:1,2017-11-10T15:30:00Z,30.2791,-87.5561,63.67,1111122 
DISL,ioos:station:DISL:PPTA:1,2017-11-10T16:30:00Z,30.2791,-87.5561,48.36,1111122 
DISL,ioos:station:DISL:PPTA:1,2017-11-10T17:30:00Z,30.2791,-87.5561,42.54,1111122 
DISL,ioos:station:DISL:PPTA:1,2017-11-10T18:30:00Z,30.2791,-87.5561,46.28,1111122 
DISL,ioos:station:DISL:PPTA:1,2017-11-10T19:30:00Z,30.2791,-87.5561,45.02,1111122 
DISL,ioos:station:DISL:PPTA:1,2017-11-10T20:30:00Z,30.2791,-87.5561,37.18,1111122 
DISL,ioos:station:DISL:PPTA:1,2017-11-10T21:30:00Z,30.2791,-87.5561,38.81,1111122 
DISL,ioos:station:DISL:PPTA:1,2017-11-10T22:30:00Z,30.2791,-87.5561,43.83,1111122 
DISL,ioos:station:DISL:PPTA:1,2017-11-10T23:30:00Z,30.2791,-87.5561,53.53,1111122 
DISL,ioos:station:DISL:PPTA:1,2017-11-11T00:30:00Z,30.2791,-87.5561,58.06,1111122 
DISL,ioos:station:DISL:PPTA:1,2017-11-11T01:30:00Z,30.2791,-87.5561,62.64,1111122 
DISL,ioos:station:DISL:PPTA:1,2017-11-11T02:30:00Z,30.2791,-87.5561,67.78,1111122 
DISL,ioos:station:DISL:PPTA:1,2017-11-11T03:30:00Z,30.2791,-87.5561,68.16,1111122 
DISL,ioos:station:DISL:PPTA:1,2017-11-11T04:30:00Z,30.2791,-87.5561,67.0,1111122 
DISL,ioos:station:DISL:PPTA:1,2017-11-11T05:30:00Z,30.2791,-87.5561,71.41,1111122 
DISL,ioos:station:DISL:PPTA:1,2017-11-11T06:30:00Z,30.2791,-87.5561,71.13,1111122 
DISL,ioos:station:DISL:PPTA:1,2017-11-11T07:30:00Z,30.2791,-87.5561,70.89,1111122 
DISL,ioos:station:DISL:PPTA:1,2017-11-11T08:30:00Z,30.2791,-87.5561,72.98,1111122 
DISL,ioos:station:DISL:PPTA:1,2017-11-11T09:30:00Z,30.2791,-87.5561,73.42,1111122 
DISL,ioos:station:DISL:PPTA:1,2017-11-11T10:30:00Z,30.2791,-87.5561,77.01,1111122 
DISL,ioos:station:DISL:PPTA:1,2017-11-11T11:30:00Z,30.2791,-87.5561,77.45,1111122 
DISL,ioos:station:DISL:PPTA:1,2017-11-11T12:30:00Z,30.2791,-87.5561,77.55,1111122 
DISL,ioos:station:DISL:PPTA:1,2017-11-11T13:30:00Z,30.2791,-87.5561,75.13,1111122 
DISL,ioos:station:DISL:PPTA:1,2017-11-11T14:30:00Z,30.2791,-87.5561,69.67,1111122 
DISL,ioos:station:DISL:PPTA:1,2017-11-11T15:30:00Z,30.2791,-87.5561,65.55,1111122 
DISL,ioos:station:DISL:PPTA:1,2017-11-11T16:30:00Z,30.2791,-87.5561,66.66,1111122 
DISL,ioos:station:DISL:PPTA:1,2017-11-11T17:30:00Z,30.2791,-87.5561,69.86,1111122 
DISL,ioos:station:DISL:PPTA:1,2017-11-11T18:30:00Z,30.2791,-87.5561,72.15,1111122 
DISL,ioos:station:DISL:PPTA:1,2017-11-11T19:30:00Z,30.2791,-87.5561,70.96,1111122 
DISL,ioos:station:DISL:PPTA:1,2017-11-11T20:30:00Z,30.2791,-87.5561,70.86,1111122 
DISL,ioos:station:DISL:PPTA:1,2017-11-11T21:30:00Z,30.2791,-87.5561,70.79,1111122 
DISL,ioos:station:DISL:PPTA:1,2017-11-11T22:30:00Z,30.2791,-87.5561,70.65,1111122 
DISL,ioos:station:DISL:PPTA:1,2017-11-11T23:30:00Z,30.2791,-87.5561,73.99,1111122 
DISL,ioos:station:DISL:PPTA:1,2017-11-12T00:30:00Z,30.2791,-87.5561,72.87,1111122 
DISL,ioos:station:DISL:PPTA:1,2017-11-12T01:30:00Z,30.2791,-87.5561,72.35,1111122 
DISL,ioos:station:DISL:PPTA:1,2017-11-12T02:30:00Z,30.2791,-87.5561,69.9,1111122 
DISL,ioos:station:DISL:PPTA:1,2017-11-12T03:30:00Z,30.2791,-87.5561,74.75,1111122 
DISL,ioos:station:DISL:PPTA:1,2017-11-12T04:30:00Z,30.2791,-87.5561,80.0,1111122 
DISL,ioos:station:DISL:PPTA:1,2017-11-12T05:30:00Z,30.2791,-87.5561,83.8,1111122 
DISL,ioos:station:DISL:PPTA:1,2017-11-12T06:30:00Z,30.2791,-87.5561,85.0,1111122 
DISL,ioos:station:DISL:PPTA:1,2017-11-12T07:30:00Z,30.2791,-87.5561,88.9,1111122 
DISL,ioos:station:DISL:PPTA:1,2017-11-12T08:30:00Z,30.2791,-87.5561,89.2,1111122 
DISL,ioos:station:DISL:PPTA:1,2017-11-12T09:30:00Z,30.2791,-87.5561,89.5,1111122 
DISL,ioos:station:DISL:PPTA:1,2017-11-12T10:30:00Z,30.2791,-87.5561,89.4,1111122 
DISL,ioos:station:DISL:PPTA:1,2017-11-12T11:30:00Z,30.2791,-87.5561,90.3,1111122 
DISL,ioos:station:DISL:PPTA:1,2017-11-12T12:30:00Z,30.2791,-87.5561,90.0,1111122 
DISL,ioos:station:DISL:PPTA:1,2017-11-12T13:30:00Z,30.2791,-87.5561,89.8,1111122 
DISL,ioos:station:DISL:PPTA:1,2017-11-12T14:30:00Z,30.2791,-87.5561,89.2,1111122 
DISL,ioos:station:DISL:PPTA:1,2017-11-12T15:30:00Z,30.2791,-87.5561,87.5,1111122 
DISL,ioos:station:DISL:PPTA:1,2017-11-12T16:30:00Z,30.2791,-87.5561,84.7,1111122 
DISL,ioos:station:DISL:PPTA:1,2017-11-12T17:30:00Z,30.2791,-87.5561,82.2,1111122 
DISL,ioos:station:DISL:PPTA:1,2017-11-12T18:30:00Z,30.2791,-87.5561,80.4,1111122 
DISL,ioos:station:DISL:PPTA:1,2017-11-12T19:30:00Z,30.2791,-87.5561,82.5,1111122 
DISL,ioos:station:DISL:PPTA:1,2017-11-12T20:30:00Z,30.2791,-87.5561,87.4,1111122 
DISL,ioos:station:DISL:PPTA:1,2017-11-12T21:30:00Z,30.2791,-87.5561,84.2,1111122 
DISL,ioos:station:DISL:PPTA:1,2017-11-12T22:30:00Z,30.2791,-87.5561,84.9,1111122 
DISL,ioos:station:DISL:PPTA:1,2017-11-12T23:30:00Z,30.2791,-87.5561,85.0,1111122 
DISL,ioos:station:DISL:PPTA:1,2017-11-13T00:30:00Z,30.2791,-87.5561,83.9,1111122 
DISL,ioos:station:DISL:PPTA:1,2017-11-13T01:30:00Z,30.2791,-87.5561,83.8,1111122 
DISL,ioos:station:DISL:PPTA:1,2017-11-13T02:30:00Z,30.2791,-87.5561,82.8,1111122 
DISL,ioos:station:DISL:PPTA:1,2017-11-13T03:30:00Z,30.2791,-87.5561,83.8,1111122 